Regional Weather Roundup
Issued by NWS Green Bay, WI

Home | Current Version | Previous Version | Graphics & Text | Print | Product List | Glossary Off
Versions: 1 2 3 4 5 6 7 8 9 10 11 12 13 14 15 16 17 18 19 20 21 22 23 24 25 26 27 28 29 30 31 32 33 34 35 36 37 38 39 40 41 42 43 44 45 46 47 48 49 50

000
ASUS43 KGRB 211310
RWRGRB

NORTH-CENTRAL AND NORTHEAST WISCONSIN REGIONAL WEATHER ROUNDUP
NATIONAL WEATHER SERVICE GREEN BAY WI
800 AM CDT TUE OCT 21 2014

WIZ005-009-010>012-018-019-211400-
NORTH CENTRAL WISCONSIN

CITY           SKY/WX    TMP DP  RH WIND       PRES   REMARKS
IRONWOOD       CLOUDY    37  36  93 E6        30.21R
MANITOWISH WTR CLOUDY    36  34  92 E7        30.22R
ARBOR VITAE    CLOUDY    39  36  87 N5        30.21R
EAGLE RIVER    CLOUDY    37  34  91 NE9       30.21R
LAND O LAKES   CLOUDY    37  35  92 CALM      30.22R
RHINELANDER    CLOUDY    38  34  85 NE6       30.21R
PHILLIPS       CLOUDY    38  34  84 NE9       30.20S
ANTIGO         CLOUDY    38  34  87 N10       30.19R
TOMAHAWK       CLOUDY    39  34  80 CALM      30.21R
MERRILL        CLOUDY    40  35  80 NE6       30.20R
$$

WIZ013-073-211400-
NORTHEAST WISCONSIN

CITY           SKY/WX    TMP DP  RH WIND       PRES   REMARKS
IRON MOUNTAIN  CLOUDY    40  35  83 N9        30.20R
MARINETTE      CLOUDY    43  34  70 NE15G21   30.19R
OCONTO         CLOUDY    42  38  84 N9        30.19R
$$

WIZ017-030-035>037-045-211400-
CENTRAL WISCONSIN

CITY           SKY/WX    TMP DP  RH WIND       PRES   REMARKS
MEDFORD        CLOUDY    39  33  80 NE8       30.19R
WAUSAU         CLOUDY    41  34  76 NE6       30.19R
MOSINEE        CLOUDY    39  36  87 NE12      30.20R
MARSHFIELD     MOCLDY    40  34  79 NE9       30.19R
WISC RAPIDS    CLOUDY    42  35  76 NE9       30.21R
STEVENS POINT  CLOUDY    39  34  81 NE5       30.20R
WAUPACA        CLOUDY    43  38  83 CALM      30.20R
SHAWANO        CLOUDY    44  35  70 N14       30.20R
CLINTONVILLE   CLOUDY    43  34  70 NE5       30.19R
$$

WIZ038-039-048-051-211400-
FOX VALLEY

CITY           SKY/WX    TMP DP  RH WIND       PRES   REMARKS
NWS GREEN BAY  CLOUDY    43  37  79 N12       30.18R
APPLETON       MOCLDY    43  36  75 N10       30.18R
OSHKOSH        CLOUDY    44  37  76 N13       30.18R
FOND DU LAC    CLOUDY    45  36  70 N13G23    30.18R
$$

WIZ022-050-052-211400-
EAST CENTRAL WISCONSIN

CITY           SKY/WX    TMP DP  RH WIND       PRES   REMARKS
STURGEON BAY   CLOUDY    45  36  70 N10G20    30.17R
MANITOWOC      CLOUDY    44  40  85 N10       30.16R
SHEBOYGAN      CLOUDY    45  38  76 N10       30.15R
$$

LMZ563-521-522-541>543-211400-
LAKESHORE

STATION/POSITION TIME  TEMP    WIND        PRES    VSBY  WAVE
                       AIR SEA DIR/SP/G                  HT/PER
                 (UTC) (F)     (DEG/KT/KT) (MB)    (MI)  (FT/S)
SHEBOYGAN LKSHOR 1300   46 50  340/ 15/ 19 1021.5R
KEWAUNEE LKSHORE 1300   45      10/ 12/ 19 1020.3R
NORTHPORT PIER   1300   45      20/ 14/ 18 1021.7R
N MID LAKE BUOY  1300   45 51  360/ 19/ 23 1021.1R         4/ 5
SISTER BAY LKSHO 1200          360/ 14/ 17   N/A
STURGEON BAY CG  1200   44 50   10/  5     1021.2   3 1/2  1
CHAMBERS ISLAND  1300   45     340/ 18/ 22 1022.0R
MENOMINEE LKSHOR 1300   44     350/ 17/ 20 1022.6R
$$



USA.gov is the U.S. government's official web portal to all federal, state and local government web resources and services.